Flag for Turkey Weather past 2 weeks in Ankara, Turkey

Now
72 °F

Partly sunny.


Feels Like: 76 °F
Forecast: 47 / 75 °F
Wind: 8 mph from Southwest

Location: Ankara / Esenboga

Current Time: Apr 28, 2015 at 7:11:34 PM

Latest Report: Apr 28, 2015 at 6:20 PM


Visibility: N/A

Pressure: 29.92 "Hg

Humidity: 31%

Dew point: 39 °F

Location of AnkaraLocation

Historic Weather in Ankara — Graph

°F

Ankara temperature yesterday

Maximum temperature yesterday: 66 °F (at 3:50 PM)
Minimum temperature yesterday: 39 °F (at 5:50 AM)
Average temperature yesterday: 53 °F

Past Weeks' High & Low Weather Summary

 TemperatureHumidityPressure
High73 °F (Apr 28, 4:20 PM)100% (Apr 23, 3:50 AM)30.24 "Hg (Apr 23, 3:50 AM)
Low23 °F (Apr 24, 5:50 AM)19% (Apr 25, 2:50 PM)29.77 "Hg (Apr 19, 5:50 PM)
Average47 °F58%30.03 "Hg
* Reported Apr 13 5:20 PM — Apr 28 5:50 PM, Ankara, Weather by CustomWeather, © 2015

Note: Actual official high and low records may vary slightly from our data, if they occured in-between our weather recording intervals... More about our weather records

Advertising

Ankara weather history for previous 24 hours

 ConditionsComfort  
Time TempWeatherWind HumidityBarometerVisibility
5:50 PM
Tue, Apr 28
72 °FPartly sunny.5 mph27%29.95 "HgN/A
5:20 PM72 °FPartly sunny.10 mph27%29.95 "HgN/A
4:50 PM72 °FPartly sunny.10 mph31%29.98 "HgN/A
4:20 PM73 °FPartly sunny.13 mph27%29.98 "HgN/A
3:50 PM72 °FPartly sunny.13 mph31%29.95 "HgN/A
3:20 PM72 °FPartly sunny.10 mph29%29.98 "HgN/A
2:50 PM72 °FPartly sunny.9 mph25%29.98 "HgN/A
2:20 PM72 °FScattered clouds.10 mph29%30.01 "HgN/A
1:50 PM70 °FScattered clouds.9 mph29%30.01 "HgN/A
1:20 PM70 °FScattered clouds.13 mph31%30.01 "HgN/A
12:50 PM70 °FScattered clouds.9 mph31%30.04 "HgN/A
12:20 PM68 °FPassing clouds.10 mph30%30.04 "HgN/A
11:50 AM68 °FPassing clouds.13 mph38%30.07 "HgN/A
11:20 AM66 °FPassing clouds.7 mph37%30.07 "HgN/A
10:50 AM64 °FPassing clouds.3 mph40%30.07 "HgN/A
10:20 AM63 °FPassing clouds.2 mph39%30.07 "HgN/A
9:50 AM59 °FSunny.2 mph48%30.07 "Hg10 mi
9:20 AM55 °FSunny.2 mph55%30.07 "Hg10 mi
8:50 AM54 °FSunny.1 mph58%30.07 "Hg10 mi
8:20 AM48 °FPassing clouds.3 mph66%30.07 "HgN/A
7:50 AM43 °FSunny.2 mph76%30.07 "Hg10 mi
7:20 AM39 °FSunny.2 mph87%30.07 "Hg10 mi
6:50 AM37 °FClear.3 mph87%30.07 "Hg10 mi
6:20 AM39 °FClear.2 mph81%30.07 "Hg10 mi
5:50 AM39 °FPassing clouds.3 mph81%30.07 "HgN/A
5:20 AM36 °FClear.1 mph93%30.07 "Hg10 mi
4:50 AM37 °FPassing clouds.3 mph81%30.07 "HgN/A
4:20 AM39 °FClear.2 mph81%30.07 "Hg10 mi
3:50 AM39 °FClear.2 mph81%30.07 "Hg10 mi
3:20 AM39 °FClear.3 mph81%30.07 "Hg10 mi
2:50 AM41 °FClear.2 mph76%30.07 "Hg10 mi
2:20 AM43 °FClear.1 mph71%30.07 "Hg10 mi
1:50 AM43 °FClear.2 mph76%30.07 "Hg10 mi
1:20 AM41 °FClear.2 mph81%30.07 "Hg10 mi
12:50 AM43 °FClear.2 mph76%30.07 "Hg10 mi
12:20 AM46 °FPassing clouds.3 mph66%30.07 "HgN/A
11:50 PM
Mon, Apr 27
46 °FClear.5 mph66%30.07 "Hg10 mi
11:20 PM48 °FClear.5 mph62%30.04 "Hg10 mi
10:50 PM48 °FClear.7 mph62%30.04 "Hg10 mi
10:20 PM48 °FClear.5 mph62%30.04 "Hg10 mi
9:50 PM54 °FPassing clouds.5 mph47%30.04 "HgN/A
9:20 PM55 °FClear.5 mph47%30.04 "Hg10 mi
8:50 PM55 °FClear.2 mph44%30.04 "Hg10 mi
8:20 PM57 °FPassing clouds.3 mph44%30.04 "HgN/A
7:50 PM57 °FPassing clouds.6 mph41%30.01 "HgN/A
7:20 PM59 °FScattered clouds.7 mph42%30.01 "HgN/A
Weather by CustomWeather, © 2015

See weather overviewHow to use our weather pages